Regional Weather Roundup
Issued by NWS Green Bay, WI

Home | Current Version | Previous Version | Text Only | Print | Product List | Glossary On
Versions: 1 2 3 4 5 6 7 8 9 10 11 12 13 14 15 16 17 18 19 20 21 22 23 24 25 26 27 28 29 30 31 32 33 34 35 36 37 38 39 40 41 42 43 44 45 46 47 48 49 50
000
ASUS43 KGRB 211211
RWRGRB

NORTH-CENTRAL AND NORTHEAST WISCONSIN REGIONAL WEATHER ROUNDUP
NATIONAL WEATHER SERVICE GREEN BAY WI
600 AM CST SAT JAN 21 2017

WIZ005-009-010>012-018-019-211300-
NORTH CENTRAL WISCONSIN

CITY           SKY/WX    TMP DP  RH WIND       PRES   REMARKS
IRONWOOD       CLOUDY    35  33  92 E5        29.54S
MANITOWISH WTR CLOUDY    32  32 100 E3        29.52F
ARBOR VITAE    CLOUDY    34  33  96 SE6       29.53S FOG
EAGLE RIVER    CLOUDY    32  32 100 E3        29.53F
LAND O LAKES   CLOUDY    33  33 100 SE3       29.56F
RHINELANDER    CLOUDY    34  34 100 E8        29.54S
PHILLIPS       CLOUDY    32  32 100 E5        29.51F FOG
ANTIGO         FOG       32  32 100 E9        29.54F VSB 1/2
TOMAHAWK       CLOUDY    32  32  99 E6        29.52F FOG
MERRILL        CLOUDY    33  33 100 E8          N/A  FOG
$$

WIZ013-073-211300-
NORTHEAST WISCONSIN

CITY           SKY/WX    TMP DP  RH WIND       PRES   REMARKS
IRON MOUNTAIN  FOG       32  30  92 CALM      29.58S VSB 1/4
MARINETTE      NOT AVBL
OCONTO         CLOUDY    33  33  99 NE3       29.60S VSB 1/4
$$

WIZ017-030-035>037-045-211300-
CENTRAL WISCONSIN

CITY           SKY/WX    TMP DP  RH WIND       PRES   REMARKS
MEDFORD        CLOUDY    32  32  99 E10       29.50S FOG
WAUSAU         CLOUDY    33  33 100 SE8       29.52S FOG
MOSINEE        FOG       32  32 100 E7        29.53R VSB 1/4
MARSHFIELD     FOG       33  32  96 E12       29.48F VSB 1/4
WISC RAPIDS    CLOUDY    34  34 100 E12       29.50F FOG
STEVENS POINT  DRZL/FOG  32  32 100 NE7       29.52F VSB 1
WAUPACA        CLOUDY    36  35  96 CALM      29.53F FOG
SHAWANO        FOG       35  33  94 NE6       29.57F VSB 1/4
CLINTONVILLE   FOG       34  34 100 NE3       29.56F VSB 1/4
WAUTOMA        CLOUDY    34  34 100 E7        29.53R FOG
$$

WIZ038-039-048-051-211300-
FOX VALLEY

CITY           SKY/WX    TMP DP  RH WIND       PRES   REMARKS
NWS GREEN BAY  CLOUDY    37  37 100 E5        29.57F FOG
APPLETON         N/A     36  36 100 E7        29.52F FOG
OSHKOSH        CLOUDY    35  34  96 E7        29.53F FOG
FOND DU LAC    CLOUDY    38  35  89 E6        29.52F FOG
$$

WIZ022-050-052-211300-
EAST CENTRAL WISCONSIN

CITY           SKY/WX    TMP DP  RH WIND       PRES   REMARKS
EPHRAIM        CLOUDY    34  34 100 SE6       29.61R FOG
WASHINGTON ISL CLOUDY    34  34 100 SE3       29.63R FOG
STURGEON BAY   LGT RAIN  36  35  96 E5        29.61S FOG
MANITOWOC      FOG       36  35  96 MISG      29.59F VSB 3/4
SHEBOYGAN      MIX PCPN  35  34  96 NE8       29.55F VSB 1/2
$$

LMZ563-521-522-541>543-211300-
LAKESHORE

STATION/POSITION TIME  TEMP    WIND        PRES    VSBY  WAVE
                       AIR SEA DIR/SP/G                  HT/PER
                 (UTC) (F)     (DEG/KT/KT) (MB)    (MI)  (FT/S)
SHEBOYGAN LKSHOR 1200   36      20/  7/  8 1001.1F
KEWAUNEE LKSHORE 1148   36      50/  5/  6 1001.9S
NORTHPORT PIER   1140   34     150/  5/  7 1003.7R
SISTER BAY LKSHO 1135   35     170/  2/  6   N/A
$$



USA.gov is the U.S. government's official web portal to all federal, state and local government web resources and services.